This demonstration page uses our WeatherBlox Daily Observations layout. Learn more.

Left ArrowRight Arrow

39.92423, -83.80882

Hourly Observations for July 5, 2019

Temp ( °F °C ) Dew Point ( °F °C ) Humidity (%) Winds ( mph kmh ) Pressure ( in mb ) Visibility ( mi km ) Precip ( " mm )
12:56 am 00:56 Clear 75 23.9 74 23.3 96 96 N N/A 30.04 1017 10 16.0934 N/A
1:56 am 01:56 Clear 73 22.8 73 22.8 100 100 N N/A 30.04 1017 8 12.87472 N/A
2:56 am 02:56 Clear 74 23.3 73 22.8 97 97 SSW 5 7 30.03 1017 10 16.0934 N/A
3:56 am 03:56 Clear 73 22.8 73 22.8 100 100 SW 6 9 30.02 1017 8 12.87472 N/A
4:56 am 04:56 Clear with Mist and Fog 72 22.2 72 22.2 100 100 WSW 3 6 30.03 1017 6 9.65604 N/A
5:56 am 05:56 Clear with Mist and Fog 70 21.1 70 21.1 100 100 N N/A 30.04 1017 5 8.0467 N/A
6:21 am 06:21 Sunny with Mist and Fog 70 21 70 21 100 100 N N/A 30.04 1017 0.75 1.207005 N/A
6:28 am 06:28 Sunny with Fog 70 21 70 21 100 100 N N/A 30.04 1017 0.5 0.80467 N/A
6:32 am 06:32 Sunny with Mist and Fog 70 21 70 21 100 100 N N/A 30.05 1018 1 1.60934 N/A
6:40 am 06:40 Sunny with Mist and Fog 70 21 70 21 100 100 N N/A 30.05 1018 2 3.21868 N/A
6:56 am 06:56 Sunny with Mist and Fog 71 21.7 71 21.7 100 100 WSW 5 7 30.06 1018 2.5 4.02335 N/A
7:34 am 07:34 Sunny with Mist and Fog 73 23 73 23 100 100 N N/A 30.04 1017 3 4.82802 N/A
7:56 am 07:56 Sunny with Mist and Fog 74 23.3 74 23.3 100 100 N N/A 30.07 1018 3 4.82802 N/A
8:56 am 08:56 Partly Cloudy with Mist and Fog 77 25 76 24.4 96 96 SSW 3 6 30.08 1019 5 8.0467 N/A
9:56 am 09:56 Sunny 81 27.2 76 24.4 85 85 VRB 3 6 30.08 1019 7 11.26538 N/A
10:56 am 10:56 Sunny 85 29.4 74 23.3 70 70 N N/A 30.07 1018 10 16.0934 N/A
11:56 am 11:56 Mostly Cloudy 85 29.4 75 23.9 72 72 SW 7 11 30.08 1019 10 16.0934 N/A
12:56 pm 12:56 Mostly Sunny 87 30.6 75 23.9 67 67 S 7 11 30.07 1018 10 16.0934 N/A
1:56 pm 13:56 Mostly Cloudy 87 30.6 74 23.3 65 65 W 10 17 30.06 1018 10 16.0934 N/A
2:56 pm 14:56 Partly Cloudy 88 31.1 74 23.3 63 63 WSW 9 15 30.04 1017 10 16.0934 N/A
3:56 pm 15:56 Mostly Cloudy 86 30 74 23.3 67 67 SW 12 19 30.03 1017 10 16.0934 N/A
4:56 pm 16:56 Mostly Sunny 85 29.4 74 23.3 70 70 SSW 6 9 30.01 1016 10 16.0934 0.06 1.524
5:56 pm 17:56 Sunny 87 30.6 75 23.9 67 67 SW 8 13 30 1016 10 16.0934 N/A
6:23 pm 18:23 Sunny with Nearby Thunderstorms 86 30 75 24 70 70 SW 7 11 29.96 1014 10 16.0934 N/A
6:45 pm 18:45 Mostly Cloudy with Nearby Thunderstorms 84 29 75 24 74 74 WSW 15 24 29.96 1015 10 16.0934 N/A
6:56 pm 18:56 Partly Cloudy with Nearby Thunderstorms 82 27.8 73 22.8 74 74 WSW 12 19 30.01 1016 10 16.0934 N/A
7:06 pm 19:06 Partly Cloudy 82 28 72 22 70 70 WSW 9 15 29.96 1015 10 16.0934 N/A
7:56 pm 19:56 Sunny 82 27.8 72 22.2 72 72 SSW 3 6 30.01 1016 10 16.0934 N/A
8:56 pm 20:56 Sunny 79 26.1 74 23.3 85 85 SW 7 11 30.02 1017 10 16.0934 N/A
9:56 pm 21:56 Mostly Clear 79 26.1 74 23.3 85 85 N N/A 30.02 1017 10 16.0934 N/A
10:56 pm 22:56 Mostly Cloudy 77 25 75 23.9 94 94 SW 5 7 30.03 1017 10 16.0934 N/A
11:56 pm 23:56 Clear 77 25 73 22.8 88 88 SSW 6 9 30.02 1017 10 16.0934 N/A

Powered by AerisWeather